Weather in Pokrovka

Russia / Orenburg Oblast     52°11′36″N   53°07′18″E
temp.,
°C
wind,
m/s
gust,
m/s
humid.,
%
clouds,
%
prec.,
mm/h
press.,
hPa
HPBL,
m
24 october, sun
sun2423:00+10ssw4107598 0.0 1016197
02:00+11s41079100 0.1 1014283
05:00+11s61368100 0.1 1012483
08:00+10ssw81578100 0.3 1010585
11:00+10wsw5994100 2.4 1011691
14:00+12w5875100 0.4 1013835
17:00+12w5852100 0.4 1013729
20:00+8w376355 0.0 1015137
25 october, mon
mon2523:00+6w2367100 0.0 101557
02:00+6wnw2266100 0.0 101534
05:00+5wsw1167100 0.0 101510
08:00+5wsw2367100 0.0 101444
11:00+7w3557100 0.0 1014440
14:00+8wnw5650100 0.1 10141598
17:00+5nw787175 0.4 1016991
20:00+3nw6109199 0.1 1019694
26 october, tue
tue2623:00+4nnw7107973 0.3 1021875
02:00+1nnw610796 0.0 1024578
05:00−1nnw59787 0.0 1026339
08:00−2nnw3584100 0.0 1028136
11:00+1nnw33575 0.0 1029331
14:00+4w343357 0.0 1028797
17:00+4wsw463395 0.0 1027835
20:00+1sw494673 0.0 1028178
27 october, wed
wed2723:000sw410565 0.0 1028215
02:000sw5115812 0.0 1028227
05:00−1sw5126044 0.0 1028242
08:00−1sw511646 0.0 1028230
11:00+3wsw7114910 0.0 1028397
14:00+7wsw7103815 0.0 1026702
17:00+7wsw6103964 0.0 1026683
20:00+4sw513475 0.0 1026328
28 october, thu
thu2823:00+3sw613495 0.0 1026299
02:00+2sw513535 0.0 1025266
05:00+1sw614525 0.0 1024296
08:000sw715535 0.0 1023318
11:00+4sw8163891 0.0 1022608
14:00+8wsw10153120 0.0 10211078
17:00+7wsw8123571 0.0 10211173
20:00+6w495598 0.0 1022487